Trophée du Pays de Charleroi

Les 10 Miles de Charleroi (16.00 km)

dimanche 11 mars 2018

Le Classement original se trouve sur : http://www.chronorace.be
 
TROPHÉE DU PAYS DE CHARLEROI
LES 10 MILES DE CHARLEROI
DISTANCE : 16.00 km
dimanche 11 mars 2018
 
Place Dos NOM Pays Catégorie Pl/cat temps temps/km Vitesse
1 629 PAQUET AMAURY BEL SH 1 0:50:30 03:09 19.01
2 50 EL MATOUGUI LAHCEN BEL SH 2 0:51:50 03:14 18.52
3 2 NOEL ENZO BEL SH 3 0:52:52 03:18 18.16
4 1 DURVIAUX RAPHAËL BEL SH 4 0:53:51 03:22 17.83
5 625 DELGUSTE MARTIN BEL SH 5 0:54:29 03:24 17.62
6 3 MARRION GEOFFREY BEL V1 1 0:54:55 03:26 17.48
7 562 STROLLO SERGIO BEL SH 6 0:57:12 03:34 16.78
8 686 RUYTENBEEK OLIVIER BEL SH 7 0:57:34 03:36 16.68
9 548 DEHU DAMIEN BEL SH 8 0:58:38 03:40 16.37
10 4 DUPONT VALERIAN BEL SH 9 0:58:43 03:40 16.35
11 637 MAHIA SEBASTIEN BEL SH 10 0:59:07 03:42 16.24
12 43 WALLON STEVE BEL SH 11 0:59:13 03:42 16.21
13 398 NASLAIN DAMIEN BEL SH 12 0:59:39 03:44 16.09
14 9 PASQUE CEDRIC BEL SH 13 1:00:25 03:47 15.89
15 685 GOBERT DENYS BEL SH 14 1:00:34 03:47 15.85
16 684 CLAIS FRANÇOIS BEL SH 15 1:00:36 03:47 15.84
17 687 THIBEAU MAXIME BEL SH 16 1:01:47 03:52 15.54
18 791 LAUWERS BRYAN BEL SH 17 1:02:29 03:54 15.36
19 336 FRANCOIS CHRISTOPHE BEL V1 2 1:02:30 03:54 15.36
20 5 NOEL DOMINIQUE BEL V2 1 1:02:46 03:55 15.29
21 6 LEGROS OLIVIER BEL V1 3 1:02:46 03:55 15.29
22 607 LESOIL MATHIAS BEL SH 18 1:02:57 03:56 15.25
23 394 HSIA SÉBASTIEN BEL V1 4 1:03:30 03:58 15.12
24 833 HADJ PAUL BEL V2 2 1:03:36 03:58 15.09
25 18 GRÉGOIRE OLIVIER BEL V1 5 1:04:22 04:01 14.91
26 19 PIERRE ETIENNE BEL V1 6 1:04:29 04:02 14.89
27 425 PAQUET OLIVIER BEL V1 7 1:04:35 04:02 14.86
28 23 RUSSO TONI BEL V1 8 1:04:50 04:03 14.81
29 822 VEILLON AXEL BEL SH 19 1:04:59 04:04 14.77
30 840 CHRISTIAENS CHRISD BEL SH 20 1:05:07 04:04 14.74
31 581 VAN MAELE HEIDI BEL A1 1 1:05:10 04:04 14.73
32 213 COLLETE HUGUES BEL SH 21 1:05:29 04:06 14.66
33 824 PASCAL JEROME BEL V1 9 1:05:30 04:06 14.66
34 780 PETIT BENOIT BEL SH 22 1:05:51 04:07 14.58
35 79 BISCAGLIA FRÉDÉRIC BEL SH 23 1:05:56 04:07 14.56
36 960 GOUVERNEUR BENOÏT BEL V1 10 1:06:08 04:08 14.52
37 93 MGHARI AHMAD BEL SH 24 1:06:16 04:08 14.49
38 8 VAN DEN BERGE STEVE BEL V1 11 1:06:36 04:10 14.41
39 648 BLANCHARD POL BEL SH 25 1:06:40 04:10 14.40
40 696 DASSELEER CHRISTIAN BEL V1 12 1:06:54 04:11 14.35
41 496 BLAVIER ERIC BEL V1 13 1:07:01 04:11 14.32
42 387 LEROY VALÉRIE BEL A1 2 1:07:14 04:12 14.28
43 553 DERCQ FREDERIC BEL V1 14 1:07:21 04:13 14.25
44 969 WIECZOR KEVIN BEL SH 26 1:07:51 04:14 14.15
45 258 BONIVERT QUENTIN BEL SH 27 1:07:53 04:15 14.14
46 482 NR 482 BEL xxx   1:08:13 04:16 14.07
47 33 DEJEMEPPE JULIEN BEL SH 28 1:08:20 04:16 14.05
48 4 LECRENIER BENJAMIN BEL SH 29 1:08:29 04:17 14.02
49 38 ZARULLI CHRIS BEL SH 30 1:08:43 04:18 13.97
50 322 DEWINTER EMMANUELLE BEL SD 1 1:08:49 04:18 13.95
51 606 MORTIER PIERRE BEL V2 3 1:08:49 04:18 13.95
52 710 NR 710 BEL xxx   1:08:49 04:18 13.95
53 291 HARDAS VINCENT BEL SH 31 1:08:53 04:18 13.94
54 596 CARLOT RAPHAEL BEL V1 15 1:08:54 04:18 13.93
55 567 GAETAN SIMOENS BEL V2 4 1:09:08 04:19 13.89
56 650 BRUNO RINO BEL SH 32 1:09:11 04:19 13.88
57 285 HOMBERGER DAVID BEL SH 33 1:09:26 04:20 13.83
58 88 MASSAOUDI HOUSSINE BEL SH 34 1:09:34 04:21 13.80
59 640 RALET BENOIT BEL SH 35 1:09:51 04:22 13.74
60 12 FRONTAIN JEREMY BEL SH 36 1:09:54 04:22 13.73
61 652 VAN MALLEGHEM HENRY BEL SH 37 1:10:10 04:23 13.68
62 524 OGER SYLVAIN BEL V1 16 1:10:26 04:24 13.63
63 215 TOURNAY MARTIN BEL SH 38 1:10:41 04:25 13.58
64 277 SALERNO BIAGIO BEL SH 39 1:10:57 04:26 13.53
65 836 VERHOEVEN HERMAN BEL V2 5 1:11:00 04:26 13.52
66 837 DE PAUW GERRIT BEL SH 40 1:11:01 04:26 13.52
67 267 SANDRO VERGALLO BEL V1 17 1:11:04 04:26 13.51
68 313 VANNOORENBERGHE JOEL BEL V1 18 1:11:08 04:27 13.50
69 781 LIBERSENS THOMAS BEL SH 41 1:11:11 04:27 13.49
70 870 DESTERBECQ JIMMY BEL SH 42 1:11:20 04:27 13.46
71 865 VERMEULEN RENAUD BEL SH 43 1:11:25 04:28 13.44
72 430 CONEYS ULYSSE BEL SH 44 1:11:27 04:28 13.44
73 282 MANDERLIER ERIC BEL V2 6 1:11:29 04:28 13.43
74 604 PAULUS DAVID BEL   246 1:11:31 04:28 13.42
75 385 GOZDZICKI ALLAN BEL SH 45 1:11:36 04:28 13.41
76 603 FABRIZIO FRANGELLA BEL   247 1:11:40 04:29 13.40
77 598 RAMI SAID BEL V1 19 1:11:43 04:29 13.39
78 552 ROUFOSSE BRUNO BEL V1 20 1:11:43 04:29 13.39
79 99 GERIN JASON BEL SH 46 1:11:48 04:29 13.37
80 726 BUCHET SÉBASTIEN BEL V1 21 1:11:53 04:30 13.36
81 1 DELMAY DANIEL BEL V2 7 1:11:54 04:30 13.35
82 321 MARCHAND OLIVIER BEL V2 8 1:11:57 04:30 13.34
83 551 POCHET BENOIT BEL V1 22 1:12:00 04:30 13.33
84 55 FONTES DUARTE BEL V1 23 1:12:02 04:30 13.33
85 782 PLANCQ CYRIL BEL SH 47 1:12:04 04:30 13.32
86 479 LANGUILLIER ALAIN BEL SH 48 1:12:08 04:30 13.31
87 50 BIETTLOT BENJAMIN BEL SH 49 1:12:20 04:31 13.27
88 80 CORNET DANIEL BEL V1 24 1:12:26 04:32 13.25
89 804 BONOMI NICOLAS BEL SH 50 1:12:31 04:32 13.24
90 669 BAUDSON DAVID BEL V1 25 1:12:32 04:32 13.24
91 401 ROSSI THOMAS BEL V1 26 1:12:42 04:33 13.21
92 52 ALLOUCHI SOULI BEL V1 27 1:12:42 04:33 13.21
93 504 DACOSSE PHILIPPE BEL V2 9 1:12:43 04:33 13.20
94 32 EGUEUR JOHAN BEL SH 51 1:12:45 04:33 13.20
95 373 NIHOUL ROBIN BEL SH 52 1:12:48 04:33 13.19
96 571 COGELS OLIVIER FRANÇOIS BEL SH 53 1:12:54 04:33 13.17
97 638 DESMIT BENJAMIN BEL SH 54 1:12:58 04:34 13.16
98 574 HORLAIT DYLAN BEL SH 55 1:12:58 04:34 13.16
99 965 MAILIER CHRISTIAN BEL V3 1 1:13:02 04:34 13.14
100 389 GOCHARD-4'30 MANU BEL V2 10 1:13:03 04:34 13.14
101 859 YAGUE-SANZ NATHALIE BEL A1 3 1:13:04 04:34 13.14
102 826 GODFROID ERIC BEL V1 28 1:13:12 04:34 13.11
103 736 JACQUY BENOIT BEL SH 56 1:13:13 04:35 13.11
104 633 VAN DER VEKEN JÉRÉMY BEL SH 57 1:13:15 04:35 13.11
105 55 BERTI ROMAIN BEL SH 58 1:13:20 04:35 13.09
106 526 HANQUET YONI BEL SH 59 1:13:30 04:36 13.06
107 537 ZICO RODRIGO BEL V1 29 1:13:33 04:36 13.05
108 819 LEFEVRE STÉPHANE BEL SH 60 1:13:49 04:37 13.01
109 516 MOUSTY MAXIME BEL SH 61 1:13:54 04:37 12.99
110 427 BÉVERNAGIE GWEN BEL SH 62 1:13:58 04:37 12.98
111 502 ZEGARI AYOUB BEL SH 63 1:13:59 04:37 12.98
112 788 COSTANZO ERASMO BEL SH 64 1:14:09 04:38 12.95
113 846 BORGNET ALAIN BEL V1 30 1:14:11 04:38 12.94
114 503 GILLES ALEXANDRE BEL SH 65 1:14:12 04:38 12.94
115 582 COTTEELS MAXENCE BEL SH 66 1:14:13 04:38 12.94
116 386 CECERE SANDRO BEL SH 67 1:14:13 04:38 12.94
117 649 BRISMEZ DELPHINE BEL A1 4 1:14:33 04:40 12.88
118 701 RUBAN SOPHIE BEL SD 2 1:14:40 04:40 12.86
119 400 RISSELIN CHRISTELLE BEL SD 3 1:14:42 04:40 12.85
120 844 LEPER ROBERT BEL V3 2 1:14:43 04:40 12.85
121 364 BAUDUIN MICHAËL BEL V1 31 1:14:47 04:40 12.84
122 905 WUILPART OLIVIER BEL V1 32 1:14:49 04:41 12.83
123 673 BOUNITON BRUNO BEL SH 68 1:14:51 04:41 12.83
124 339 BRUNO STEFANO BEL V1 33 1:14:56 04:41 12.81
125 81 DECAMPS ERIC BEL V2 11 1:15:04 04:41 12.79
126 51 BROEKMANS GREG RAF BEL SH 69 1:15:04 04:41 12.79
127 527 CHINTINNE JÉRÉMIE BEL SH 70 1:15:08 04:42 12.78
128 746 RAIMONDI JEAN LOUIS BEL V2 12 1:15:21 04:43 12.74
129 526 WILMET FRANÇOIS BEL SH 71 1:15:25 04:43 12.73
130 549 MAES ROMAIN BEL SH 72 1:15:31 04:43 12.71
131 631 LAMBERT FRANÇOIS BEL SH 73 1:15:35 04:43 12.70
132 704 GUTIERREZ MANUEL BEL V1 34 1:15:46 04:44 12.67
133 874 SZOSTKO BARTEK BEL V1 35 1:15:51 04:44 12.66
134 93 FERNANDEZ-VERA ANTONIO BEL V2 13 1:15:52 04:44 12.65
135 853 KMIECIK MARIUSZ BEL V1 36 1:16:00 04:45 12.63
136 89 BIERSWISCH JEAN-MICHEL BEL V1 37 1:16:04 04:45 12.62
137 489 ROCHET BAPTISTE BEL SH 74 1:16:07 04:45 12.61
138 278 SAUDEMONT FREDERIC BEL V2 14 1:16:08 04:45 12.61
139 325 LEBLANC FABIEN BEL V1 38 1:16:09 04:46 12.61
140 53 LIETARD LAURENT BEL V1 39 1:16:13 04:46 12.60
141 234 POLIZZI FEDERICO BEL SH 75 1:16:17 04:46 12.58
142 84 DRICOT NICOLAS BEL JH 1 1:16:19 04:46 12.58
143 588 MASSCHELEIN ADELINE BEL SD 4 1:16:23 04:46 12.57
144 100 VANHOEGAERDEN THIERRY BEL SH 76 1:16:24 04:46 12.57
145 628 BOURGEOIS MICHEL YVAN BEL V1 40 1:16:25 04:47 12.56
146 583 HOWET ANTONIN BEL   248 1:16:27 04:47 12.56
147 936 BALDANI FRANCESCO BEL SH 77 1:16:35 04:47 12.54
148 600 TASILLO DORIAN BEL SH 78 1:16:36 04:47 12.53
149 605 HALLOIN HAGUENIER BEL SH 79 1:16:39 04:47 12.52
150 593 LAMBERT GERMAIN BEL SH 80 1:16:40 04:47 12.52
151 825 PASCAL ANNE BEL A1 5 1:16:46 04:48 12.51
152 447 GILLOT GAELLE BEL SD 5 1:16:49 04:48 12.50
153 531 SERVOTTE BENOIT BEL SH 81 1:16:52 04:48 12.49
154 304 LENNE ANTOINE BEL SH 82 1:16:54 04:48 12.48
155 249 BACHELY GEOFFREY BEL SH 83 1:16:56 04:48 12.48
156 388 FRANCE SÉBASTIEN BEL SH 84 1:16:58 04:49 12.47
157 800 LOPEZ-FANEGO JONATHAN BEL SH 85 1:16:59 04:49 12.47
158 206 BOURGEOIS STÉPHANE BEL V1 41 1:17:00 04:49 12.47
159 391 WOLNY JEAN-CHRISTOPHE BEL SH 86 1:17:08 04:49 12.45
160 82 DEMOULIN ALAIN BEL V2 15 1:17:12 04:49 12.44
161 476 HAMAIDE JEREMY BEL SH 87 1:17:14 04:50 12.43
162 677 LONCKE FREDERIC BEL V1 42 1:17:22 04:50 12.41
163 670 OGUZ MUZAFER BEL V2 16 1:17:25 04:50 12.40
164 590 LEMAL ANTHONY BEL SH 88 1:17:27 04:50 12.40
165 262 MANNARINO GIULIANO BEL SH 89 1:17:32 04:51 12.38
166 805 MARCHOUL CLÉMENT BEL SH 90 1:17:33 04:51 12.38
167 431 VERHOESTRAETE TAM BEL SH 91 1:17:36 04:51 12.37
168 945 ANTENUCCI MAURO BEL V3 3 1:17:41 04:51 12.36
169 384 DE VOS ERWIN BEL V1 43 1:17:44 04:51 12.35
170 8 VANESCOTE INGRID BEL A1 6 1:17:46 04:52 12.34
171 214 CAPORALE JULIEN BEL SH 92 1:17:47 04:52 12.34
172 962 INGRASCI VINCENT BEL SH 93 1:17:47 04:52 12.34
173 891 GOFFAUX LOGAN BEL SH 94 1:17:49 04:52 12.34
174 7 LARDENOEY FRÉDÉRIC BEL SH 95 1:17:55 04:52 12.32
175 641 INTROVIGNE ADRIEN BEL SH 96 1:18:08 04:53 12.29
176 381 DE PAUW CHRISTOPHE BEL V1 44 1:18:08 04:53 12.29
177 692 BAKKALI HAKIM BEL SH 97 1:18:09 04:53 12.28
178 37 AGHLAL LAHCEN BEL V1 45 1:18:11 04:53 12.28
179 88 BERGER THIERRY BEL V2 17 1:18:12 04:53 12.28
180 855 MUSIN DAMIEN BEL SH 98 1:18:17 04:54 12.26
181 740 BODART FABRICE BEL V1 46 1:18:18 04:54 12.26
182 14 GRAUMANN FREDERIC BEL V1 47 1:18:19 04:54 12.26
183 405 SATTA CONSTANTIN BEL V2 18 1:18:25 04:54 12.24
184 831 FRAIPONT INGRID BEL SD 6 1:18:38 04:55 12.21
185 610 DELHEZ DONATIEN BEL SH 99 1:18:39 04:55 12.21
186 320 OTTAVIANI REMI BEL SH 100 1:18:41 04:55 12.20
187 397 BELJA IBRAHIM BEL V1 48 1:18:41 04:55 12.20
188 376 THOMAS RAPHAEL BEL SH 101 1:18:42 04:55 12.20
189 862 BLANCHART NICOLAS BEL SH 102 1:18:43 04:55 12.20
190 594 TNOURJI MICHAËL PASCAL BEL SH 103 1:18:43 04:55 12.20
191 715   BEL xxx   1:18:46 04:55 12.19
192 279 AMORISON DAVID BEL SH 104 1:18:49 04:56 12.18
193 344 DEPRIS JOHNNY BEL SH 105 1:18:50 04:56 12.18
194 87 BERNARD RUDI BEL V2 19 1:18:51 04:56 12.18
195 232 ALLEGRO CASTELLANA BEL V1 49 1:18:53 04:56 12.17
196 841 HENRIOULLE JÉRÔME BEL SH 106 1:18:55 04:56 12.16
197 628 BIRON MARCEL BEL V1 50 1:18:57 04:56 12.16
198 409 MELICE NOE BEL SH 107 1:19:03 04:56 12.14
199 613 GHILAIN PHILIPPE BEL V1 51 1:19:08 04:57 12.13
200 693 ØEMIG JESPER BEL SH 108 1:19:09 04:57 12.13
201 454 PAYEN BAUDOUIN BEL SH 109 1:19:18 04:57 12.11
202 274 PORFIRIO MANUEL BEL V1 52 1:19:19 04:57 12.10
203 17 RICCI GUILLAUME BEL SH 110 1:19:19 04:57 12.10
204 467 RENARD NICOLAS BEL SH 111 1:19:19 04:57 12.10
205 28 POSADINU GIOVANNI BEL V2 20 1:19:28 04:58 12.08
206 801 MINNE LAURENT BEL SH 112 1:19:31 04:58 12.07
207 626 PEPINSTER NICOLAS BEL SH 113 1:19:34 04:58 12.07
208 690 DUJACQUIER GRÉGORY BEL V1 53 1:19:37 04:59 12.06
209 238 DUQUE THIERRY BEL V2 21 1:19:37 04:59 12.06
210 10 HELLAS MARTIN BEL SH 114 1:19:39 04:59 12.05
211 977 BALANDIER JEAN-YVES BEL SH 115 1:19:41 04:59 12.05
212 342 AUBERT SERGE BEL V3 4 1:19:42 04:59 12.05
213 903 HÉRON VINCENT BEL V1 54 1:19:43 04:59 12.04
214 477 BEUGNIES DAVID BEL SH 116 1:19:44 04:59 12.04
215 512 RAPOSO JULIEN BEL SH 117 1:19:45 04:59 12.04
216 883 SCHMIDT NICOLAS BEL SH 118 1:19:52 04:59 12.02
217 755 SEVERINO THOMAS BEL SH 119 1:19:55 05:00 12.01
218 946 BADY FRANK BEL SH 120 1:19:56 05:00 12.01
219 348 CORBUGY BERNADETTE BEL A2 1 1:19:57 05:00 12.01
220 758 CHAKIR AHMED BEL SH 121 1:19:58 05:00 12.01
221 474 VAN DIJK KEVIN BEL SH 122 1:19:59 05:00 12.00
222 557 BLAMPAIN BAPTISTE BEL SH 123 1:20:02 05:00 12.00
223 554 MINETTE SÉBASTIEN BEL SH 124 1:20:11 05:01 11.97
224 991 MINETTE SEBASTIEN BEL SH 125 1:20:12 05:01 11.97
225 299 VASSART SÉVERINE BEL SD 7 1:20:12 05:01 11.97
226 31 PELLEGRINI ESTEBAN BEL V1 55 1:20:16 05:01 11.96
227 84 RIGON DAVID BEL V1 56 1:20:16 05:01 11.96
228 550 MORENO-PASCUAL ANTHONY BEL SH 126 1:20:21 05:01 11.95
229 370 POITOUX MAXIME BEL V1 57 1:20:22 05:01 11.95
230 565 GOBERT PASCAL BEL V1 58 1:20:26 05:02 11.94
231 679 VAN YCK TIMOTHY BEL SH 127 1:20:26 05:02 11.94
232 908 ROMBAUX DIDIER BEL V3 5 1:20:33 05:02 11.92
233 68 RABOZÉE JÉRÔME BEL SH 128 1:20:33 05:02 11.92
234 31 VAN DEN BERGE ERWIN BEL SH 129 1:20:42 05:03 11.90
235 634 BUFFA PABLO BEL SH 130 1:20:43 05:03 11.89
236 609 VERHAEGEN JULIEN BEL SH 131 1:20:43 05:03 11.89
237 754 MOULIN ARNAUD BEL SH 132 1:20:45 05:03 11.89
238 257 VANDERCAM FABIAN BEL V1 59 1:20:46 05:03 11.89
239 485 NR 485 BEL xxx   1:20:50 05:03 11.88
240 649 DEVRIEZE DAMIEN BEL SH 133 1:20:54 05:03 11.87
241 959 GAILLY ALICE BEL SD 8 1:20:56 05:03 11.86
242 48 KISS LAURENT BEL SH 134 1:20:56 05:03 11.86
243 407 CHALLE RAYNALD BEL SH 135 1:21:01 05:04 11.85
244 309 VRAY VALÉRIE BEL A1 7 1:21:01 05:04 11.85
245 838 LAEBENS FRANÇOIS BEL SH 136 1:21:04 05:04 11.84
246 80 DELIBOYRAZ EFENDI BEL SH 137 1:21:08 05:04 11.83
247 948 BELLOTTO STÉPHANE BEL V1 60 1:21:10 05:04 11.83
248 966 NEIRYNCK MARC BEL V2 22 1:21:11 05:04 11.83
249 547 HUSDEN JEAN-FRANCOIS BEL V1 61 1:21:13 05:05 11.82
250 70 SAMYN GILLES BEL V3 6 1:21:14 05:05 11.82
251 54 PAQUET MICHAEL BEL V1 62 1:21:17 05:05 11.81
252 630 TESSIAN SAMUEL BEL SH 138 1:21:17 05:05 11.81
253 60 SERVAIS GÉRALD BEL V1 63 1:21:20 05:05 11.80
254 830 VIDICK JEAN-LUC BEL V3 7 1:21:38 05:06 11.76
255 829 ALEXANDRE FRANCOISE BEL A3 1 1:21:39 05:06 11.76
256 530 VERMEULEN MAXIME BEL SH 139 1:21:40 05:06 11.76
257 523 SPRIMONT ARNAUD BEL SH 140 1:21:41 05:06 11.75
258 806 DUJACQUIER VERONIQUE BEL A1 8 1:21:42 05:06 11.75
259 510 FLORE CARLO BEL V2 23 1:21:56 05:07 11.72
260 69 NOKERMAN VINCENT BEL SH 141 1:22:00 05:07 11.71
261 319 SCIULLO FRÉDÉRIC BEL SH 142 1:22:02 05:08 11.70
262 311 VAN THIELEN ANTHONY BEL SH 143 1:22:03 05:08 11.70
263 298 LOOCKX HUGO BEL SH 144 1:22:04 05:08 11.70
264 814 CULLUS XAVIER BEL V1 64 1:22:07 05:08 11.69
265 737 BYLOOS VALERIE BEL A1 9 1:22:13 05:08 11.68
266 796 DERCQ LUCAS BEL SH 145 1:22:16 05:08 11.67
267 590 VAN IMPE ANTHONY BEL SH 146 1:22:17 05:09 11.67
268 98 DUPONT JEAN-MARC BEL V2 24 1:22:20 05:09 11.66
269 390 BONFANTI THIERRY BEL SH 147 1:22:23 05:09 11.65
270 16 FAUCONNIER PHILIPPE BEL V2 25 1:22:24 05:09 11.65
271 586 DEPRET DELPHINE BEL SD 9 1:22:24 05:09 11.65
272 654 PIERONI MARIO BEL V2 26 1:22:26 05:09 11.65
273 35 DELFOSSE PASCAL BEL V2 27 1:22:29 05:09 11.64
274 600 HERMANS CHRISTIAN BEL V1 65 1:22:29 05:09 11.64
275 296 CLAES YANNICK BEL V1 66 1:22:32 05:09 11.63
276 705 THIRY MARIE BEL SD 10 1:22:33 05:10 11.63
277 655 VLEUGELS CHRIS BEL SH 148 1:22:35 05:10 11.62
278 306 DEREYMAEKER BENOÎT BEL V1 67 1:22:37 05:10 11.62
279 388 MURAT CANDEGER BEL V2 28 1:22:38 05:10 11.62
280 588 LOOCKX DENIS BEL SH 149 1:22:43 05:10 11.61
281 792 VAN DEN BUSSCHE DENIS BEL V1 68 1:22:44 05:10 11.60
282 252 PATERNOSTRE JEAN-JACQUES BEL V2 29 1:22:45 05:10 11.60
283 752 COCO FABIO BEL SH 150 1:22:48 05:10 11.59
284 624 DELAPAS STEPHANE BEL SH 151 1:22:52 05:11 11.58
285 532 LEURQUIN MATHIEU BEL SH 152 1:22:57 05:11 11.57
286 871 MAC DONOUGH GUILLAUME BEL SH 153 1:22:59 05:11 11.57
287 591 HAINAUT ALLAN BEL SH 154 1:22:59 05:11 11.57
288 589 LAUWERS STEVE BEL V2 30 1:22:59 05:11 11.57
289 497 SNOUSSI AMINE BEL SH 155 1:23:01 05:11 11.56
290 761 DUMOULIN LAURENT BEL V1 69 1:23:02 05:11 11.56
291 852 MERLIER STEVEN BEL V1 70 1:23:03 05:11 11.56
292 759 EL BAAMRANI KARIM BEL SH 156 1:23:05 05:12 11.55
293 555 ORONZO D'ADDABBO BEL V2 31 1:23:09 05:12 11.55
294 556 BALDARELLI FABIO BEL V1 71 1:23:09 05:12 11.55
295 91 DULIEU STEVE BEL V1 72 1:23:11 05:12 11.54
296 59 SPITALERI MARIO BEL V2 32 1:23:11 05:12 11.54
297 230 DI BERNARDO STÉPHANE BEL V1 73 1:23:12 05:12 11.54
298 778 SCARNIÈRE DENIS BEL V2 33 1:23:12 05:12 11.54
299 443 PORTER RYAN BEL SH 157 1:23:14 05:12 11.53
300 662 ATIENZA MARTINEZ LUDOVIC BEL SH 158 1:23:16 05:12 11.53
301 897 TONNEAUX FREDERIC BEL V1 74 1:23:17 05:12 11.53
302 64 ANSLOT LAURENT BEL V1 75 1:23:22 05:13 11.52
303 640 MOREAU ETIENNE BEL V2 34 1:23:29 05:13 11.50
304 593 MORENO JUAN BEL V2 35 1:23:29 05:13 11.50
305 811 LABIAUX BAPTISTE BEL JH 2 1:23:32 05:13 11.49
306 683 AFAM GUILLAUME BEL SH 159 1:23:32 05:13 11.49
307 807 PRAIL CHRISTIAN BEL V3 8 1:23:32 05:13 11.49
308 730 DI GIACOMO CARL BEL SH 160 1:23:34 05:13 11.49
309 437 CROWET VIVIAN BEL SH 161 1:23:34 05:13 11.49
310 621 NERRINCK GILLES BEL SH 162 1:23:34 05:13 11.49
311 491 BOUTCHON GREGORY BEL V1 76 1:23:35 05:13 11.49
312 463 WAUTIER ANNE BEL A1 10 1:23:39 05:14 11.48
313 332 GRARD CHRISTIAN BEL V2 36 1:23:40 05:14 11.47
314 53 NTAKIRUTIMANA DAMASCENE BEL SH 163 1:23:42 05:14 11.47
315 354 DEBODT ELODIE BEL SD 11 1:23:42 05:14 11.47
316 799 CASTRO THOMAS BEL SH 164 1:23:45 05:14 11.46
317 470 RENARD THOMAS BEL SH 165 1:23:46 05:14 11.46
318 967 PIERARD MARIE-NOËLLE BEL A2 2 1:23:46 05:14 11.46
319 581 ROBERT ARNAUD BEL SH 166 1:23:48 05:14 11.46
320 645 EUGÈNE GUILLAUME ANTOINE BEL SH 167 1:23:52 05:14 11.45
321 560 GROSSO PASCAL BEL V1 77 1:23:54 05:15 11.44
322 582 BOUDELET CHRISTIAN BEL V2 37 1:23:54 05:15 11.44
323 964 LOOTVOET SÉBASTIENNE BEL A1 11 1:23:55 05:15 11.44
324 558 DARQUENNE STANY BEL SH 168 1:23:56 05:15 11.44
325 674 MCLYNN MAEVE BEL SD 12 1:23:56 05:15 11.44
326 577 EL HARCHI HASSEN BEL xxx   1:23:58 05:15 11.43
327 597 PAPPENS JEAN-FRANCOIS BEL SH 169 1:24:02 05:15 11.42
328 620 BUSEYNE EMMANUEL BEL V1 78 1:24:03 05:15 11.42
329 30 PERIÈRE SALVATORE BEL SH 170 1:24:08 05:15 11.41
330 536 PRETER SERGE BEL V3 9 1:24:10 05:16 11.41
331 666 TODARO RENATO BEL V2 38 1:24:11 05:16 11.40
332 2 VENTURA FRÉDÉRIC BEL V1 79 1:24:14 05:16 11.40
333 864 NGUYEN THOMAS-GIA-KY BEL SH 171 1:24:16 05:16 11.39
334 543 EYLETTERS CLÉMENT BEL SH 172 1:24:16 05:16 11.39
335 978 BURNY ROGER BEL V3 10 1:24:17 05:16 11.39
336 219 FIORI ERIC BEL V2 39 1:24:18 05:16 11.39
337 25 DOYEN LOANN BEL SH 173 1:24:25 05:17 11.37
338 584 CHARED IANIS BEL SH 174 1:24:29 05:17 11.36
339 950 BERTIEAUX PASCAL BEL V2 40 1:24:31 05:17 11.36
340 11 SCIEUR LAURA BEL SD 13 1:24:31 05:17 11.36
341 14 MESSE LIONEL BEL SH 175 1:24:32 05:17 11.36
342 35 SOLLENNITA ANGELO BEL V2 41 1:24:36 05:17 11.35
343 816 HUBERT ANNABEL BEL A1 12 1:24:37 05:17 11.35
344 205 BERGER GREGORIAN BEL JH 3 1:24:37 05:17 11.35
345 19 FISICARO JEROME BEL SH 176 1:24:43 05:18 11.33
346 494 WAUTERS THOMAS BEL SH 177 1:24:48 05:18 11.32
347 413 AUDIN JULIE BEL SD 14 1:24:48 05:18 11.32
348 412 AUDIN CHRISTIAN BEL V3 11 1:24:49 05:18 11.32
349 954 DELFOSSE CAMILLE BEL SD 15 1:24:49 05:18 11.32
350 845 VAN DEN BOSSCHE PATRICK BEL V1 80 1:24:51 05:18 11.31
351 961 HONORE DAVID BEL V2 42 1:24:52 05:18 11.31
352 273 DEHON LAURENT BEL V1 81 1:24:53 05:18 11.31
353 528 BUCCI GABRIELE BEL V2 43 1:24:55 05:18 11.31
354 67 PULICI FRANCESCA BEL A1 13 1:24:57 05:19 11.30
355 569 SANFILIPPO GAETAN BEL SH 178 1:24:58 05:19 11.30
356 733 MARZILLI CARMINE BEL V1 82 1:24:59 05:19 11.30
357 90 DE VITIS QUENTIN BEL SH 179 1:25:03 05:19 11.29
358 303 LESEINE KEVIN BEL SH 180 1:25:06 05:19 11.28
359 283 DORCIMONT CHANTAL BEL A2 3 1:25:10 05:19 11.27
360 544 EYLETTERS MAXENCE BEL SH 181 1:25:10 05:19 11.27
361 688 TROUPIN CÉCILE BEL A1 14 1:25:13 05:20 11.27
362 972 FONTAINE JUSTINE BEL SD 16 1:25:14 05:20 11.26
363 545 BAYET NICOLAS BEL SH 182 1:25:16 05:20 11.26
364 907 PIERMAN BAUDOUIN BEL V3 12 1:25:16 05:20 11.26
365 46 GILSON DIDIER BEL V2 44 1:25:17 05:20 11.26
366 984 FLABOREA FRANCO BEL V3 13 1:25:17 05:20 11.26
367 879 DE MAESENEIRE PASCAL BEL V2 45 1:25:22 05:20 11.25
368 71 CLERBOIS RUDY BEL V1 83 1:25:32 05:21 11.22
369 579 DEKEYZER JEROME BEL SH 183 1:25:34 05:21 11.22
370 57 DUTERME JULIE BEL SD 17 1:25:38 05:21 11.21
371 58 DUTERME CHRISTOPHE BEL SH 184 1:25:39 05:21 11.21
372 286 CHARLIER BENOIT BEL V1 84 1:25:42 05:21 11.20
373 622 WÉRY AXEL BEL V1 85 1:25:49 05:22 11.19
374 67 VANHOREBECK DAMIEN BEL SH 185 1:25:50 05:22 11.18
375 797 SMET PHILIPPE BEL SH 186 1:25:53 05:22 11.18
376 734 PAIX MICHEL BEL V2 46 1:26:01 05:23 11.16
377 793 ADAM GILLES BEL V2 47 1:26:01 05:23 11.16
378 580 DAMBLON REGINE BEL A3 2 1:26:04 05:23 11.15
379 59 DELEMAR MIGUEL BEL JH 4 1:26:06 05:23 11.15
380 881 FERRITTO JULIEN BEL SH 187 1:26:07 05:23 11.15
381 305 COLOT EVARISTE BEL JH 5 1:26:08 05:23 11.15
382 568 CEROLI NICOLAS BEL SH 188 1:26:12 05:23 11.14
383 638 GAILLARD AUDRAN BEL SH 189 1:26:15 05:23 11.13
384 896 SEVERINO JOSEPH BEL SH 190 1:26:18 05:24 11.12
385 66 CAMBRIA FRANCESCO BEL V1 86 1:26:20 05:24 11.12
386 955 DELITTE BÉNÉDICTE BEL A2 4 1:26:21 05:24 11.12
387 384 MARTIN NICOLAS BEL SH 191 1:26:23 05:24 11.11
388 599 SESTITO JOSEPH BEL V2 48 1:26:26 05:24 11.11
389 87 BARONE CONCETTA BEL A1 15 1:26:29 05:24 11.10
390 24 RASCON NQDINE BEL A2 5 1:26:29 05:24 11.10
391 492 CUVILLIER THIBAUT BEL SH 192 1:26:32 05:24 11.09
392 906 THIRION DOMINIQUE BEL A2 6 1:26:33 05:25 11.09
393 659 DI CATALDO SALVATORE BEL SH 193 1:26:39 05:25 11.08
394 377 MARZETTA BRIAN BEL V1 87 1:26:42 05:25 11.07
395 493 STRAPS JULIEN BEL V1 88 1:26:50 05:26 11.06
396 434 PENDEVILLE VINCENT BEL V2 49 1:26:54 05:26 11.05
397 889 HIRSCHBERG RUBEN BEL SH 194 1:26:55 05:26 11.05
398 76 DAIX GARRY BEL SH 195 1:27:00 05:26 11.03
399 854 CHALTIN FRÉDÉRIC BEL SH 196 1:27:01 05:26 11.03
400 235 DEHON GILLES BEL V1 89 1:27:02 05:26 11.03
401 359 SCIGLIUZZO DANIEL BEL V2 50 1:27:03 05:26 11.03
402 40 BAUDUIN VINCENT BEL V2 51 1:27:07 05:27 11.02
403 29 DEDECKER PHILIPPE BEL V1 90 1:27:08 05:27 11.02
404 3 IADICICCO ANTONIETTA BEL A2 7 1:27:17 05:27 11.00
405 650 VALENTI DAVID BEL V1 91 1:27:18 05:27 11.00
406 958 FOULON JEAN-POL BEL V3 14 1:27:18 05:27 11.00
407 956 DEWULF LUC BEL V3 15 1:27:18 05:27 11.00
408 813 BOUVY SARAH BEL SD 18 1:27:19 05:27 10.99
409 561 FARRUGIA CHRISTOPHER BEL SH 197 1:27:21 05:28 10.99
410 559 CUBEDDU ANTHONY BEL SH 198 1:27:22 05:28 10.99
411 802 RICARD YANNICK BEL V2 52 1:27:23 05:28 10.99
412 827 DEL GALDO MASSIMO BEL SH 199 1:27:23 05:28 10.99
413 971 CLEPPE VINCENT BEL V1 92 1:27:24 05:28 10.98
414 525 DUMAY BENOIT BEL SH 200 1:27:25 05:28 10.98
415 209 VIVIAN JEAN-FRANÇOIS BEL V2 53 1:27:26 05:28 10.98
416 603 DUTHOIT SÉBASTIEN BEL SH 201 1:27:27 05:28 10.98
417 57 FIEVET MURIELLE BEL A1 16 1:27:27 05:28 10.98
418 839 VAN LAETEHM ELOI BEL V3 16 1:27:28 05:28 10.98
419 694 PFEIFER MORITZ BEL SH 202 1:27:28 05:28 10.98
420 374 MARTIN THIERRY BEL V1 93 1:27:31 05:28 10.97
421 834 HOTELET ALEXIS BEL SH 203 1:27:34 05:28 10.96
422 457 PHILIPPE GILLARD BEL V1 94 1:27:36 05:28 10.96
423 417 LANOTTE ANTONIO BEL V1 95 1:27:39 05:29 10.95
424 253 DESHAYES SEVERINE BEL SD 19 1:27:40 05:29 10.95
425 281 SABLON DOMINIQUE BEL V1 96 1:27:42 05:29 10.95
426 849 RENOTTE ROGER BEL V3 17 1:27:43 05:29 10.94
427 587 PENNUCCI DAVID BEL V1 97 1:27:44 05:29 10.94
428 240 BRUYÈRE SERGE BEL V2 54 1:27:45 05:29 10.94
429 635 HOMBERT JEAN-JACQUES GASTON BEL V2 55 1:27:47 05:29 10.94
430 418 HAMBENNE JULIE BEL A1 17 1:27:49 05:29 10.93
431 601 RUCQUOY VINCENT BEL V1 98 1:27:58 05:30 10.91
432 542 PIAZZALUNGA JULIEN BEL SH 204 1:28:00 05:30 10.91
433 26 CHIAROTTO LUCAS BEL SH 205 1:28:01 05:30 10.91
434 45 DE RIDDER DANY BEL V2 56 1:28:02 05:30 10.91
435 429 ZALLES CARLOS BEL SH 206 1:28:04 05:30 10.90
436 456 DECOCQ FRANÇOISE BEL A2 8 1:28:08 05:30 10.89
437 90 NR 90 BEL xxx   1:28:14 05:31 10.88
438 661 CARTRYSSE LAURNNE BEL SD 20 1:28:20 05:31 10.87
439 630 GATER FRANCESCA BEL A1 18 1:28:20 05:31 10.87
440 714 GILSON JEROME BEL SH 207 1:28:23 05:31 10.86
441 817 MICHEL PIERRE BEL V1 99 1:28:23 05:31 10.86
442 540 PIEROPAN CHRISTOPHE BEL V1 100 1:28:25 05:32 10.86
443 83 DENIS CHRISTIAN BEL V3 18 1:28:26 05:32 10.86
444 268 LUC FABRICE BEL V2 57 1:28:26 05:32 10.86
445 997 TOSCANUCCI MICHAËL BEL SH 208 1:28:27 05:32 10.85
446 941 TATIANA ROCHEREAU BEL SD 21 1:28:32 05:32 10.84
447 939 LELOUP JORIS BEL SH 209 1:28:32 05:32 10.84
448 882 MOREELS NICOLAS BEL SH 210 1:28:34 05:32 10.84
449 438 DULIER BENJAMIN BEL SH 211 1:28:35 05:32 10.84
450 953 DELEPIERRE CATHERINE BEL A2 9 1:28:35 05:32 10.84
451 949 BERCY MARIE-PAULE BEL A3 3 1:28:35 05:32 10.84
452 832 LONGUE MATHIEU BEL SH 212 1:28:42 05:33 10.82
453 520 CLERSY SAMUEL BEL SH 213 1:28:45 05:33 10.82
454 521 BOUILLIEZ YOAN BEL SH 214 1:28:45 05:33 10.82
455 790 DE BACKER VERONIQUE BEL A2 10 1:28:49 05:33 10.81
456 460 ANDRÉ NICOLAS BEL SH 215 1:28:51 05:33 10.80
457 27 ANTOINE DOMINIQUE BEL V2 58 1:28:52 05:33 10.80
458 468 MUSSOI RAPHAEL BEL SH 216 1:28:52 05:33 10.80
459 651 HONTOY PIERRE BEL SH 217 1:28:54 05:33 10.80
460 471 LAURIER STEVEN BEL SH 218 1:28:54 05:33 10.80
461 787 DEHAVAY ROMAIN BEL SH 219 1:28:54 05:33 10.80
462 810 LABIAUX FRANKIE BEL V1 101 1:28:55 05:33 10.80
463 266 ITTELET ALEXANDRA BEL SD 22 1:28:55 05:33 10.80
464 20 FAUCONNIER JEROME BEL SH 220 1:28:57 05:34 10.79
465 529 LEBOUTTE CORENTIN BEL SH 221 1:29:00 05:34 10.79
466 614 HARDAS GRÉGORY PATRICE BEL SH 222 1:29:00 05:34 10.79
467 617 CHAUVAUX ANNE BEL SD 23 1:29:06 05:34 10.77
468 56 CECCONELLO JEAN-FRANCOIS BEL SH 223 1:29:10 05:34 10.77
469 663 PALMERI VALENTIN BEL SH 224 1:29:14 05:35 10.76
470 426 CROGNALETTI GLADYS BEL SD 24 1:29:20 05:35 10.75
471 91 HIGUET PIERRE BEL V2 59 1:29:21 05:35 10.74
472 38 SCURTI JOHAN BEL SH 225 1:29:21 05:35 10.74
473 224 VALETTE VINCENT BEL SH 226 1:29:24 05:35 10.74
474 594 BAUDUIN BRIEUC BEL SH 227 1:29:27 05:35 10.73
475 751 VANDE MOORTELE JASON BEL SH 228 1:29:28 05:35 10.73
476 878 SACCHI ADRIEN BEL SH 229 1:29:29 05:36 10.73
477 408 SALVÉ MANU BEL V1 102 1:29:31 05:36 10.72
478 890 GOFFAUX FRANCK BEL V1 103 1:29:33 05:36 10.72
479 488 FRENNET AYMERYCK BEL SH 230 1:29:33 05:36 10.72
480 317 TROLIO PSQUALE BEL V3 19 1:29:36 05:36 10.71
481 360 GANDIBLEUX KARINE BEL A2 11 1:29:39 05:36 10.71
482 254 GAILLY MARC BEL V2 60 1:29:40 05:36 10.71
483 314 VANGREVELING CATHERINE BEL A1 19 1:29:47 05:37 10.69
484 49 MICHEL DIMITRI BEL V1 104 1:29:51 05:37 10.68
485 731 BOISDEQUIN SAMUEL BEL SH 231 1:29:51 05:37 10.68
486 264 WATHELET JEAN-MARC BEL V3 20 1:29:51 05:37 10.68
487 23 LIEMANS JEROME BEL SH 232 1:29:56 05:37 10.67
488 462 GANCARZ GRZEGORZ BEL V1 105 1:29:59 05:37 10.67
489 860 VARGIAKAKIS GEORGIOS BEL V2 61 1:30:01 05:38 10.66
490 416 TERZINI SERAFINO BEL V2 62 1:30:05 05:38 10.66
491 46 FEUILLAT MAXIME BEL SH 233 1:30:07 05:38 10.65
492 5 GUAZZO VINCENT BEL SH 234 1:30:12 05:38 10.64
493 272 SKOLC DAVID BEL V1 106 1:30:13 05:38 10.64
494 729 LIBERSENS LUC BEL V2 63 1:30:13 05:38 10.64
495 60 REIDEMEISTER JEAN BEL V1 107 1:30:15 05:38 10.64
496 795 MARTINQUET FABRICE BEL V1 108 1:30:16 05:38 10.64
497 284 BARBE RUDY BEL V1 109 1:30:20 05:39 10.63
498 741 CHRISTOPHE GWENN BEL V1 110 1:30:20 05:39 10.63
499 78 VANDER CASSYEN DOMINIQUE BEL A3 4 1:30:23 05:39 10.62
500 27 MERTENS LAURENT BEL V1 111 1:30:23 05:39 10.62
501 645 GILLARD STÉPHANE BEL V1 112 1:30:25 05:39 10.62
502 259 BRUN FABIAN BEL V1 113 1:30:27 05:39 10.61
503 331 GRARD CHRISTOPHER BEL SH 235 1:30:33 05:40 10.60
504 328 HAINAUT CHARLES BEL V2 64 1:30:35 05:40 10.60
505 875 LAMBEIN LORE BEL SD 25 1:30:36 05:40 10.60
506 532 DALLE RIVE CYRIL BEL SH 236 1:30:37 05:40 10.59
507 786 MARINELLI GAETANO BEL V2 65 1:30:42 05:40 10.58
508 750 TAGLIAFERO CÉDRIC BEL SH 237 1:30:43 05:40 10.58
509 989 MICHEL MARTINE BEL A2 12 1:30:44 05:40 10.58
510 869 BARZYCZAK SIMON BEL SH 238 1:30:46 05:40 10.58
511 672 TORRESAN GEOFFREY BEL V1 114 1:30:47 05:40 10.57
512 646 BLANCHY ARNAUD BEL SH 239 1:30:57 05:41 10.56
513 785 DECAMPS DIMITRI BEL V1 115 1:31:00 05:41 10.55
514 647 DE VREESE SÉBASTIEN LUC BEL SH 240 1:31:05 05:42 10.54
515 522 ANTONACCI DAN BEL V2 66 1:31:05 05:42 10.54
516 295 VANDERSTRAETEN PIERRE BEL V1 116 1:31:08 05:42 10.53
517 223 MBEZELE BRIAC BEL SH 241 1:31:13 05:42 10.52
518 625 BAUDOUX GILLES BEL SH 242 1:31:15 05:42 10.52
519 589 GONZE ADRIEN BEL SH 243 1:31:15 05:42 10.52
520 657 BINARD DOMINIQUE FERNAND BEL V3 21 1:31:18 05:42 10.51
521 587 ORBAN CAROLINE BEL SD 26 1:31:19 05:42 10.51
522 835 VAN VAERENBERGH KATRIEN BEL SD 27 1:31:21 05:43 10.51
523 823 VANDEMEULEBROUCKE KEVIN BEL SH 244 1:31:26 05:43 10.50
524 988 LEGROS VANESSA BEL A1 20 1:31:29 05:43 10.49
525 681 VANROSSOMME LUC BEL V2 67 1:31:29 05:43 10.49
526 979 CANTAMESSA CAROLINE BEL SD 28 1:31:30 05:43 10.49
527 22 LIERNEUX HUGUES BEL V1 117 1:31:34 05:43 10.48
528 642 GIACOMINI ADRIEN BEL SH 245 1:31:36 05:43 10.48
529 393 MANNARINO LAURA BEL SD 29 1:31:39 05:44 10.47
530 635 POPKOFF ANTOINE BEL SH 246 1:31:39 05:44 10.47
531 585 BALIEU CEDRIC BEL SH 247 1:31:40 05:44 10.47
532 7 FRANCHELLA ERIC BEL V1 118 1:31:44 05:44 10.47
533 968 POTY DELPHINE BEL SD 30 1:31:44 05:44 10.47
534 66 NR 66 BEL xxx   1:31:44 05:44 10.47
535 952 DELAFONTAINE THIERRY BEL V2 68 1:31:45 05:44 10.46
536 601 FERRITTO DAMIANO BEL SH 248 1:31:45 05:44 10.46
537 428 MARLIER MAXIME BEL SH 249 1:31:47 05:44 10.46
538 433 BEDORET GAETAN BEL SH 250 1:31:47 05:44 10.46
539 519 SOUVATZIS MELINA BEL A1 21 1:31:49 05:44 10.46
540 12 AMMAZZALUPO FRANCESCO BEL V3 22 1:31:50 05:44 10.45
541 96 LEDUC STÉPHANE BEL V1 119 1:31:50 05:44 10.45
542 987 GILLE LÉOPOLD BEL V4 1 1:31:51 05:44 10.45
543 695 FLEURY ANNE BEL SD 31 1:31:55 05:45 10.44
544 392   BEL xxx   1:31:57 05:45 10.44
545 745 CZAJKOWSKI CATHERINE BEL A1 22 1:32:01 05:45 10.43
546 271 COSSEMENT ALEXIS BEL V1 120 1:32:03 05:45 10.43
547 518 PAQUET DAVID BEL V1 121 1:32:05 05:45 10.43
548 366 FLAMENT PHILIPPE BEL V2 69 1:32:14 05:46 10.41
549 51 REFOJOS XAVIER BEL SH 251 1:32:15 05:46 10.41
550 707 DELMOTTE PASCAL BEL V1 122 1:32:20 05:46 10.40
551 270 SKOLC NOEMIE BEL SD 32 1:32:22 05:46 10.39
552 748 LEGRAND EMELINE BEL SD 33 1:32:24 05:46 10.39
553 378 KRABLER GRÉGORY BEL V1 123 1:32:28 05:47 10.38
554 62 BOEL NATHALIE BEL A1 23 1:32:30 05:47 10.38
555 473 VANCOMPERNOLLE QUENTIN BEL SH 252 1:32:30 05:47 10.38
556 592 PACORUS MURIEL BEL A1 24 1:32:32 05:47 10.37
557 237 AMJAHDINE MADANI BEL SH 253 1:32:33 05:47 10.37
558 231 GUNAYDIN AYSE BEL A1 25 1:32:33 05:47 10.37
559 334 GAMBINO GIOVANNI BEL SH 254 1:32:36 05:47 10.37
560 335 GAMBINO ALFONSO BEL V3 23 1:32:36 05:47 10.37
561 602 IOVINE DANIELE BEL V1 124 1:32:36 05:47 10.37
562 63 SAIL CHRISTINE BEL A1 26 1:32:38 05:47 10.36
563 789 GARCIA JOSE-LUIS BEL V2 70 1:32:42 05:48 10.36
564 753 COCO MAURO BEL SH 255 1:32:43 05:48 10.35
565 16 CAPURSO VIRGINIE BEL SD 34 1:32:45 05:48 10.35
566 459 HELVENSTEIN MAXIME BEL SH 256 1:32:47 05:48 10.35
567 757 NR 757 BEL xxx   1:32:55 05:48 10.33
568 632 VAN WELLEN PETER WILLIAM BEL V1 125 1:33:12 05:49 10.30
569 421 BAILLIEU JEAN-MARC BEL V1 126 1:33:13 05:50 10.30
570 327 HERPAIN CÉDRIC BEL V1 127 1:33:13 05:50 10.30
571 419 ROMY FARRIS BEL V1 128 1:33:14 05:50 10.30
572 444 CHARTIER BENJAMIN BEL SH 257 1:33:16 05:50 10.29
573 361 LION PATRICIA BEL A2 13 1:33:19 05:50 10.29
574 848 BIRGIT DUMEZ BEL A2 14 1:33:26 05:50 10.27
575 850 ROSE MYRIAM BEL A2 15 1:33:27 05:50 10.27
576 981 DE BELDER JOELLE BEL A2 16 1:33:30 05:51 10.27
577 595 ISTACE GREGORY BEL SH 258 1:33:31 05:51 10.27
578 45 ARROTIN REMY BEL SH 259 1:33:34 05:51 10.26
579 602 NEUVILLE JEAN-FRANÇOIS BEL SH 260 1:33:35 05:51 10.26
580 440 TANNIER TOMMY BEL SH 261 1:33:42 05:51 10.25
581 621 PROULT CHRISTOPHE BEL V1 129 1:33:44 05:51 10.24
582 247 SCHLOESSLIN GAËTAN BEL SH 262 1:33:45 05:52 10.24
583 212 DUTRANOIT ARNAUD BEL V1 130 1:33:57 05:52 10.22
584 210 SERET FRANCOIS BEL SH 263 1:33:57 05:52 10.22
585 24 ROUVROY DANIEL BEL V3 24 1:34:02 05:53 10.21
586 580 GUELTON DAMIEN BEL SH 264 1:34:02 05:53 10.21
587 379 DELACOURT JEAN POL BEL V2 71 1:34:04 05:53 10.21
588 256   BEL xxx   1:34:06 05:53 10.20
589 606 DUBOIS BENJAMIN BEL SH 265 1:34:10 05:53 10.19
590 316 TROLIO SAMUEL BEL SH 266 1:34:14 05:53 10.19
591 265 BUSCEMI VINCENZO BEL V1 131 1:34:16 05:53 10.18
592 863 DECONINCK FABRICE BEL V1 132 1:34:23 05:54 10.17
593 445 DESOETE STEVE BEL SH 267 1:34:31 05:54 10.16
594 539 DECOSTER JULIE BEL SD 35 1:34:31 05:54 10.16
595 538 DECOSTER DAMIEN BEL SH 268 1:34:32 05:54 10.16
596 595 DE PAEPE ALEXANDRE BEL SH 269 1:34:47 05:55 10.13
597 624 LAMBLOT MARC BEL V2 72 1:34:51 05:56 10.12
598 17 MITRI MYLENA BEL A1 27 1:34:54 05:56 10.12
599 207 DUPIN ALAIN BEL V2 73 1:34:56 05:56 10.11
600 68 LECOMTE CORINNE BEL A2 17 1:35:00 05:56 10.11
601 586 BURTON PATRICIA BEL A2 18 1:35:03 05:56 10.10
602 647 DUCHENE MICHELLE BEL A2 19 1:35:11 05:57 10.09
603 617 SEKRI LAHCEN BEL JH 6 1:35:12 05:57 10.08
604 524 DE TROYER DOMINIQUE BEL V2 74 1:35:24 05:58 10.06
605 794 FRAVEZZI JHEZABEL BEL SD 36 1:35:28 05:58 10.06
606 784 FRAU FABIENNE BEL A1 28 1:35:29 05:58 10.05
607 646 CIURO GIUSEPPE BEL V2 75 1:35:32 05:58 10.05
608 514 COPPEE XAVIER BEL SH 270 1:35:33 05:58 10.05
609 229 SEKRI ABDEL BEL V1 133 1:35:38 05:59 10.04
610 986 GAVIRA MARIA-ISABEL BEL A2 20 1:35:39 05:59 10.04
611 996 TERRONES MUNOZ FRANCISCO BEL V3 25 1:35:39 05:59 10.04
612 33 CHIF FRÉDÉRIQUE BEL SD 37 1:35:41 05:59 10.03
613 622 MARCOUX DIANE BEL SD 38 1:35:42 05:59 10.03
614 85 DRICOT ELISA BEL SD 39 1:35:49 05:59 10.02
615 570 JUMEAU VINCENT BEL V1 134 1:35:51 05:59 10.02
616 308 NOTTE CHRISTEL BEL SD 40 1:35:55 06:00 10.01
617 9 BRUNO LUIGI BEL V2 76 1:35:56 06:00 10.01
618 300 OTTE NATHALIE BEL A1 29 1:35:59 06:00 10.00
619 719 MARSELLA NICOLAS BEL V1 135 1:36:01 06:00 10.00
620 999 VANSIGHEN ANNE-SOPHIE BEL SD 41 1:36:04 06:00 9.99
621 242 BERNARD ANTOINE BEL SH 271 1:36:06 06:00 9.99
622 367 BONDARENKO VERA BEL SD 42 1:36:08 06:00 9.99
623 541 WARROT LAURENT BEL V1 136 1:36:18 06:01 9.97
624 49 RIBANT JULIEN BEL SH 272 1:36:26 06:02 9.96
625 623 DE NIZZA SABRINA BEL SD 43 1:36:26 06:02 9.96
626 708 DELMOTTE THOMAS BEL JH 7 1:36:26 06:02 9.96
627 333 GOISSE OLIVIER BEL V1 137 1:36:28 06:02 9.95
628 221 DEBEIR OLIVIER BEL V1 138 1:36:29 06:02 9.95
629 481 NR 481 BEL xxx   1:36:35 06:02 9.94
630 872 MELLOUL FOUAD BEL V1 139 1:36:39 06:02 9.93
631 700 CORNELIS ERIC BEL V2 77 1:36:42 06:03 9.93
632 546 VAN RIET VALENTIN BEL SH 273 1:36:45 06:03 9.92
633 530 DE LONGUEVILLE EMMANUELLE MARIE BEL SD 44 1:36:45 06:03 9.92
634 250 SOERS SÉBASTIEN BEL SH 274 1:36:49 06:03 9.92
635 535 BONNEJONNE GEOFFREY BEL SH 275 1:36:49 06:03 9.92
636 578 HARVENT IRIS ANAÏS BEL SD 45 1:36:50 06:03 9.91
637 441 TRAINA CHRISTOPHE BEL V1 140 1:36:54 06:03 9.91
638 809 CATOIR BERTRAND BEL V1 141 1:36:55 06:03 9.91
639 808 LEBRUN CATHERINE BEL A1 30 1:36:55 06:03 9.91
640 396 BYWALSKI LARA BEL A1 31 1:36:56 06:03 9.90
641 783 BROHEZ BRUNO BEL V2 78 1:36:59 06:04 9.90
642 828 PRÉAUX JEAN-LUC BEL V2 79 1:37:00 06:04 9.90
643 251 BENUZZI DAMIEN BEL SH 276 1:37:00 06:04 9.90
644 615 SAUCEZ CLAUDE BEL V1 142 1:37:01 06:04 9.90
645 900 BRANCATO MICHAEL BEL SH 277 1:37:02 06:04 9.89
646 243 VANOVERSCHELDE REMY BEL SH 278 1:37:03 06:04 9.89
647 513 ARTUSO PIERRE BEL SH 279 1:37:18 06:05 9.87
648 449 PARENT JONATHAN BEL SH 280 1:37:24 06:05 9.86
649 77 DEPREZ FRANÇOIS BEL V2 80 1:37:27 06:05 9.85
650 575 CHALTIN ALICIA BEL SD 46 1:37:28 06:05 9.85
651 315 VANDEMAELE CARINE BEL A2 21 1:37:30 06:06 9.85
652 455 ROMERS ERIC BEL V2 81 1:37:31 06:06 9.84
653 815 GROGNET SONIA BEL A2 22 1:37:33 06:06 9.84
654 873 LEGROS THOMAS BEL JH 8 1:37:33 06:06 9.84
655 623 FOUARGE THOMAS BEL SH 281 1:37:34 06:06 9.84
656 877 SICURO LUCA BEL SH 282 1:37:37 06:06 9.83
657 678 GOUVERNEUR ETIENNE BEL V1 143 1:37:39 06:06 9.83
658 508 BELLEMONT GREGORY BEL SH 283 1:37:41 06:06 9.83
659 722 COELST NATHALIE BEL A1 32 1:37:41 06:06 9.83
660 680 GIULIANI FERNANDO BEL V3 26 1:37:44 06:06 9.82
661 612 CHIARETTO JEAN POL BEL V2 82 1:37:45 06:07 9.82
662 611 ACETO ALESSANDRO BEL SH 284 1:37:46 06:07 9.82
663 74 BERGIERS KARL BEL V1 144 1:37:50 06:07 9.81
664 222 SANDRON DOMINIQUE BEL V1 145 1:37:51 06:07 9.81
665 75 ALESSI ROSARIO BEL V1 146 1:37:52 06:07 9.81
666 451 LEPIED CEDRIC BEL SH 285 1:37:53 06:07 9.81
667 260 PARDOEN CHRISTIAN BEL V2 83 1:37:55 06:07 9.80
668 499 PARENT STEVE BEL SH 286 1:38:01 06:08 9.79
669 13 ONALI ALESSANDRO BEL SH 287 1:38:03 06:08 9.79
670 893 FORIER DIRK BEL V2 84 1:38:09 06:08 9.78
671 985 FORT DANY BEL V2 85 1:38:11 06:08 9.78
672 448 YILDIZ TULAY BEL A1 33 1:38:19 06:09 9.76
673 13 RAVAUX PATRICE BEL SH 288 1:38:24 06:09 9.76
674 355 LORIAUX CHANTAL BEL A2 23 1:38:28 06:09 9.75
675 301 MARISCAL DIAZ ELISABETH BEL SD 47 1:38:30 06:09 9.75
676 760 FILISETTI JEAN-MARIE BEL V1 147 1:38:34 06:10 9.74
677 245 PETIT GERALDINE BEL SD 48 1:38:37 06:10 9.73
678 851 PIRSON GRENADINE BEL SD 49 1:38:39 06:10 9.73
679 39 HERBINAUX NADÈGE BEL SD 50 1:38:41 06:10 9.73
680 894 DETRY FABRICE BEL V1 148 1:38:41 06:10 9.73
681 616 DEPIREUX CHRISTOPHE JACQUES BEL V1 149 1:38:43 06:10 9.72
682 92 DUSSART JEAN-PIERRE BEL V3 27 1:38:43 06:10 9.72
683 818 MICHEL LAURENT BEL V2 86 1:38:46 06:10 9.72
684 89 BRUNIAUX DIDIER BEL V2 87 1:38:50 06:11 9.71
685 798 LE GOUPIL MARINE BEL JF 1 1:38:52 06:11 9.71
686 627 GILIS LAURENT BEL V1 150 1:38:53 06:11 9.71
687 100 VANDE WINKEL MELANIE BEL SD 51 1:38:57 06:11 9.70
688 713 TROPEANO AYMEN BEL JH 9 1:39:02 06:11 9.69
689 255 PETIT MONIQUE BEL A2 24 1:39:02 06:11 9.69
690 643 PIERARD ESTELLE BEL SD 52 1:39:02 06:11 9.69
691 525 DENIS JULIEN BEL SH 289 1:39:03 06:11 9.69
692 743 GOUDJI CÉDRICK WILFRIED BEL SH 290 1:39:14 06:12 9.67
693 475 SWALENS SAMUEL BEL V1 151 1:39:17 06:12 9.67
694 639 FRANCE NICOLAS BEL V1 152 1:39:24 06:13 9.66
695 18 VANTOMME RÉMY BEL SH 291 1:39:27 06:13 9.65
696 404 BAR TRYSTAN BEL JH 10 1:39:27 06:13 9.65
697 218 FARELLA FEDELE BEL V1 153 1:39:31 06:13 9.65
698 77 CARON BRUNO BEL V1 154 1:39:32 06:13 9.65
699 20 LAIXHAY JOSINE BEL SD 53 1:39:33 06:13 9.64
700 25 PIRARD VINCENT BEL SH 292 1:39:38 06:14 9.64
701 598 LAMY PATRICE BEL SH 293 1:39:41 06:14 9.63
702 980 CLOQUET PASCAL BEL V2 88 1:39:42 06:14 9.63
703 995 SERVAIS VINCIENNE BEL A2 25 1:39:44 06:14 9.63
704 626 BIERLAIRE NICOLAS BEL SH 294 1:39:53 06:15 9.61
705 596 PLASMAN PIERRE MICHEL BEL SH 295 1:40:02 06:15 9.60
706 41 SEGERS MICHAEL BEL V1 155 1:40:02 06:15 9.60
707 227 PIROZZI STEPHANE BEL xxx   1:40:03 06:15 9.60
708 453 BRODEN PHILIPPE BEL V2 89 1:40:09 06:16 9.59
709 452 STERCKX FABIENNE BEL A2 26 1:40:10 06:16 9.58
710 599 KOBUS ELISABETH BEL SD 54 1:40:17 06:16 9.57
711 572 JEUNEHOMME CHARLEE BEL SH 296 1:40:21 06:16 9.57
712 821 DRYGALSKI MICHEL BEL V4 2 1:40:28 06:17 9.56
713 667 MEURRENS YVON BEL V3 28 1:40:33 06:17 9.55
714 608 GOVAERTS STEVEN DIDIER BEL SH 297 1:40:37 06:17 9.54
715 233 DEPREZ ANTOINE BEL V3 29 1:40:37 06:17 9.54
716 583 HOSSELET JULIEN BEL SH 298 1:40:39 06:17 9.54
717 358 BAUD'HUIN CÉCILE BEL A2 27 1:40:39 06:17 9.54
718 228 VANDEWINCKEL NICOLAS BEL V1 156 1:40:47 06:18 9.53
719 465 BAILLY ADRIEN BEL SH 299 1:41:05 06:19 9.50
720 466 BAILLY ETIENNE BEL V3 30 1:41:05 06:19 9.50
721 483 NR 483 BEL xxx   1:41:09 06:19 9.49
722 386 VERTESSEN GEOFFREY BEL SH 300 1:41:10 06:19 9.49
723 803 WILEM SARAH BEL SD 55 1:41:11 06:19 9.49
724 591 ELOY DIT AGRY NORBERT MAXIME BEL V3 31 1:41:15 06:20 9.48
725 742 ROSY MARTINE BEL A2 28 1:41:16 06:20 9.48
726 312 VANNOORENBERGHE REMY BEL SH 301 1:41:16 06:20 9.48
727 998 VANHIESBECQ PIERROT BEL V2 90 1:41:20 06:20 9.47
728 11 CARIAT ALAIN BEL V3 32 1:41:27 06:20 9.46
729 632 ZEBIER XAVIER BEL V1 157 1:41:28 06:20 9.46
730 81 FICHELLE STÉPHANIE BEL A1 34 1:41:31 06:21 9.46
731 83 ANCISSE MARC BEL V1 158 1:41:37 06:21 9.45
732 82 DELHAYE PASCAL BEL V2 91 1:41:37 06:21 9.45
733 47 RENAUX NATHALIE BEL A2 29 1:41:46 06:22 9.43
734 75 DUEZ CHRISTOPHE BEL V1 159 1:41:48 06:22 9.43
735 888 VANDER AUWERA SOPHIE BEL SD 56 1:41:50 06:22 9.43
736 500 PARENT GREGORY BEL SH 302 1:41:56 06:22 9.42
737 744 CECERE DONATO BEL SH 303 1:42:00 06:22 9.41
738 725 EVANGELISTA CORINNE BEL A1 35 1:42:02 06:23 9.41
739 341 BASSOULET JEAN-CLAUDE BEL V4 3 1:42:32 06:24 9.36
740 631 HADOUCH OUSSAMA BEL SH 304 1:42:33 06:25 9.36
741 436 CULOT VIOLAINE BEL SD 57 1:42:36 06:25 9.36
742 709 ARMUT SEYITALI BEL V1 160 1:42:36 06:25 9.36
743 629 CODJIA MARQUIS BEL V3 33 1:42:40 06:25 9.35
744 573 VERMEULEN KÉVIN BEL SH 305 1:42:53 06:26 9.33
745 62 CUCCI ANTONIO BEL V1 161 1:42:55 06:26 9.33
746 61 MANCINI MONICA BEL A1 36 1:42:56 06:26 9.33
747 676 GALLUCCIO ANTONIO MICHELE BEL V3 34 1:42:56 06:26 9.33
748 1000 VERVAEKE WILLY BEL V2 92 1:43:01 06:26 9.32
749 487 MOMMEN LOUISE BEL SD 58 1:43:02 06:26 9.32
750 976 TACK LAURENT BEL V1 162 1:43:05 06:27 9.31
751 402 ROMYNS LUKA BEL JH 11 1:43:06 06:27 9.31
752 605 MARLIER PIERRE BEL V1 163 1:43:06 06:27 9.31
753 58 CAMBRIA KARINE BEL A1 37 1:43:06 06:27 9.31
754 403 BAR FABRICE BEL V2 93 1:43:07 06:27 9.31
755 604 DESCAMPS SABRA BEL A1 38 1:43:07 06:27 9.31
756 619 VAN CEULEBROECK PEGGY BEL A1 39 1:43:08 06:27 9.31
757 682 VANGEENDERHUYSEN NATHALIE BEL SD 59 1:43:13 06:27 9.30
758 380 WILPUTTE CATHERINE BEL A1 40 1:43:20 06:27 9.29
759 486 VINCENT EDOUARD BEL SH 306 1:43:20 06:27 9.29
760 318 TROLIO MARIO BEL V3 35 1:43:31 06:28 9.27
761 432 PANNEQUIN JÉRÉMIE BEL SH 307 1:43:46 06:29 9.25
762 843 LA CAVERA FRANCESCO BEL SH 308 1:43:56 06:30 9.24
763 756 LETA FILIPPO BEL V2 94 1:43:56 06:30 9.24
764 76 VANESSE PATRICIA BEL A1 41 1:44:00 06:30 9.23
765 65 GASMANE DOMINIQUE BEL V2 95 1:44:00 06:30 9.23
766 302 FIRMINO PRISCILA BEL SD 60 1:44:02 06:30 9.23
767 385 PAERMENTIER FRANCOIS BEL SH 309 1:44:03 06:30 9.23
768 842 HONOREZ ISABELLE BEL A1 42 1:44:12 06:31 9.21
769 204 LARDINOIS MÉLANIE BEL SD 61 1:44:15 06:31 9.21
770 64 MESSINA VINCENZO BEL V3 36 1:44:20 06:31 9.20
771 63 RODONO STÉPHANIE BEL A1 43 1:44:22 06:31 9.20
772 244 LECOCQ MICHEL BEL V2 96 1:44:24 06:31 9.20
773 498 BLONDEAU DYLAN BEL SH 310 1:44:26 06:32 9.19
774 203 NAMECHE CAROLINE BEL SD 62 1:44:30 06:32 9.19
775 246 STAÏESSE CÉLINE BEL SD 63 1:44:32 06:32 9.18
776 528 DEFORGE SARAH BEL SD 64 1:44:32 06:32 9.18
777 350 GONÇALVES ISABELLE BEL SD 65 1:44:33 06:32 9.18
778 529 BIARD CÉCILIA BEL SD 66 1:44:34 06:32 9.18
779 642 ROBIOLLE MAÏTÉ BEL SD 67 1:44:51 06:33 9.16
780 866 NOWAKOWSKI STÉPHANIE BEL SD 68 1:44:56 06:33 9.15
781 220 TILLEUL CARINE BEL A1 44 1:45:04 06:34 9.14
782 79 DELBECQUE MAUD BEL A1 45 1:45:04 06:34 9.14
783 78 LIENARD SABINE BEL A1 46 1:45:04 06:34 9.14
784 511 CASCIATO DAVID BEL V1 164 1:45:06 06:34 9.13
785 99 PEGORARO ROBERTO BEL V3 37 1:45:16 06:35 9.12
786 597 BARREA GENEVIÈVE MARIE BEL A2 30 1:45:17 06:35 9.12
787 337 DE RUYVER MARIE-ANGE BEL A2 31 1:45:21 06:35 9.11
788 349 CLERBOIS RITA BEL A2 32 1:45:22 06:35 9.11
789 71 DELCOURT NATHALIE BEL A1 47 1:45:38 06:36 9.09
790 982 FANUEL PAULETTTE BEL A3 5 1:45:38 06:36 9.09
791 70 FEYDER LUC BEL V1 165 1:45:38 06:36 9.09
792 533 BAELDEN MANON BEL SD 69 1:45:45 06:37 9.08
793 970 BOZ JEAN-CHARLES BEL V4 4 1:45:46 06:37 9.08
794 98 OGER MARC BEL V1 166 1:45:49 06:37 9.07
795 310 VERFAILLIE ROMAIN BEL SH 311 1:45:51 06:37 9.07
796 15   BEL xxx   1:46:01 06:38 9.06
797 435 CULOT PATRICK BEL V2 97 1:46:04 06:38 9.05
798 43 DOUCET RENAUD BEL SH 312 1:46:05 06:38 9.05
799 40 DESCHAMPS CHRISTOPHE BEL SH 313 1:46:07 06:38 9.05
800 739 LEJEUNE VALERIE BEL SD 70 1:46:17 06:39 9.03
801 406 DUPIN PASCAL BEL V2 98 1:46:24 06:39 9.02
802 423 AGOSTA RINO BEL V1 167 1:46:26 06:39 9.02
803 414 HANOTIAUX NADINE BEL A1 48 1:46:26 06:39 9.02
804 94 LA MATINA CONCETTA BEL SD 71 1:46:30 06:39 9.01
805 95 LEDUC LAURENCE BEL A1 49 1:46:32 06:39 9.01
806 478 AMADORI BRUNO BEL V2 99 1:46:38 06:40 9.00
807 357 NOWAK ANNE-SOPHIE BEL A1 50 1:46:41 06:40 9.00
808 509 GUERRESCHI GAEL BEL SH 314 1:46:46 06:40 8.99
809 517 VAN BELLE JANICK BEL A1 51 1:46:47 06:40 8.99
810 371 CORDIER CATHY BEL A1 52 1:46:48 06:40 8.99
811 820 ROSE FRANKIE BEL V3 38 1:46:49 06:41 8.99
812 36 DE BRUYNE GUY BEL V1 168 1:46:53 06:41 8.98
813 698 RIBAUCOURT BRIGITTE BEL A1 53 1:46:56 06:41 8.98
814 963 JONCHEER NICOLE BEL A3 6 1:46:59 06:41 8.97
815 697 DELFORGE YVES BEL V3 39 1:46:59 06:41 8.97
816 943 JEAN-BAPTISTE AMÉLIE BEL SD 72 1:47:06 06:42 8.96
817 868 DAUCHOT JEAN-LUC BEL V2 100 1:47:06 06:42 8.96
818 648 GAUTHIER MARIE-LAURE BEL SD 73 1:47:07 06:42 8.96
819 947 BADY POL BEL V3 40 1:47:09 06:42 8.96
820 712 RENAUX ALEXANDRE BEL SH 315 1:47:15 06:42 8.95
821 410 SCOHIER SARAH BEL SD 74 1:47:20 06:42 8.94
822 490 VACCARELLO SAMUEL BEL SH 316 1:47:21 06:43 8.94
823 44 MACLOUFI STÉPHANE BEL V1 169 1:47:25 06:43 8.94
824 42 GODFROID FABIAN BEL V1 170 1:47:35 06:43 8.92
825 671 GONZALEZ RODRIGUEZ JUAN ANTHONY BEL SH 317 1:47:37 06:44 8.92
826 644 LENAERTS JULIE BEL A1 54 1:48:04 06:45 8.88
827 29 GRECO ISABELLA BEL SD 75 1:48:21 06:46 8.86
828 30 FOCROULLE CARL BEL V1 171 1:48:21 06:46 8.86
829 703 PAUWELS KIM BEL SD 76 1:48:27 06:47 8.85
830 461 ADAM PHILIPPE BEL V2 101 1:48:27 06:47 8.85
831 699 MINET FREDDY BEL V3 41 1:48:28 06:47 8.85
832 534 DORIGATO SOPHIE BEL SD 77 1:48:40 06:47 8.83
833 236 MIRGAUX ALINE BEL SD 78 1:48:41 06:48 8.83
834 289 MARIE STÉPHANIE BEL SD 79 1:48:41 06:48 8.83
835 15 BIENAIME LISA BEL SD 80 1:48:41 06:48 8.83
836 523 DE TROYER THOMAS BEL SH 318 1:48:43 06:48 8.83
837 993 PARÉE HERMIONE BEL A1 55 1:48:57 06:49 8.81
838 323 MACKENZIE PIERRE BEL V2 102 1:49:01 06:49 8.81
839 202 PHILIPPOT ANNE-SOPHIE BEL SD 81 1:49:08 06:49 8.80
840 720 TOTH RITA BEL A1 56 1:49:15 06:50 8.79
841 721 LEBON NATHALIE BEL A1 57 1:49:15 06:50 8.79
842 72 CLERBOIS MELISSA BEL SD 82 1:49:16 06:50 8.79
843 458 DUPUIS DAVID BEL SH 319 1:49:21 06:50 8.78
844 307 MARISCAL DIAZ VICTORIA BEL SD 83 1:49:27 06:50 8.77
845 293 GILSON BENOÎT BEL V1 172 1:49:31 06:51 8.77
846 880 SEMERARO ISABELLE BEL A1 58 1:49:50 06:52 8.74
847 324 LEFEVRE ROBERT BEL V3 42 1:49:53 06:52 8.74
848 347 CANTARELLA AGATINA BEL SD 84 1:49:56 06:52 8.73
849 346 CANTARELLA ANTONINO BEL SH 320 1:49:56 06:52 8.73
850 217 SAVOLDELLI ANTHONY BEL SH 321 1:49:59 06:52 8.73
851 365 CERINI CARLA BEL A2 33 1:50:11 06:53 8.71
852 636 LAUWAERT CHRISTIAN BEL V3 43 1:50:14 06:53 8.71
853 34 DRUAUX VÉRONIQUE BEL A2 34 1:50:16 06:53 8.71
854 390 DIERICKX CHRISTOPHE BEL V1 173 1:50:34 06:55 8.68
855 584 DI STASIO PHILIPPE ANDRÉ BEL SH 322 1:50:36 06:55 8.68
856 675 PETRIELLO LORENZO BEL SH 323 1:50:37 06:55 8.68
857 727 CAMPOS MARTIN THELMA BEL SD 85 1:50:41 06:55 8.67
858 728 CAMPOS MARTIN JOSE MARI BEL V2 103 1:50:41 06:55 8.67
859 533 AUBRY PIERRE BEL V2 104 1:50:45 06:55 8.67
860 633 VAN HAUWE ANTOINE BEL SH 324 1:50:47 06:55 8.67
861 634 NOTARO VINCENT BEL V1 174 1:50:49 06:56 8.66
862 515 SIERRA ROBERTO BEL V2 105 1:50:52 06:56 8.66
863 506 SIERRA PURITA BEL A1 59 1:50:52 06:56 8.66
864 226 DEGREVE CATHERINE BEL A1 60 1:50:53 06:56 8.66
865 636 FIRHS PRISCILLIA BEL SD 86 1:50:55 06:56 8.66
866 637 AOUST BENJAMIN BEL SH 325 1:50:56 06:56 8.65
867 578 PAPP JÉRÔME BEL SH 326 1:50:59 06:56 8.65
868 579 STAQUET CÉCILE BEL SD 87 1:50:59 06:56 8.65
869 627 BONAFEDE FABRIZIO BEL V1 175 1:51:00 06:56 8.65
870 290 CAES STÉPHANIE BEL SD 88 1:51:10 06:57 8.64
871 656 OLIVIER DYMYD BEL SH 327 1:51:21 06:58 8.62
872 85 THIRION FANFAN BEL A3 7 1:51:30 06:58 8.61
873 329 GUISSET EMMANUELLE BEL A1 61 1:51:34 06:58 8.60
874 618 CANTINAUX PAUL-ETIENNE BEL V2 106 1:51:35 06:58 8.60
875 660 BATUNAKANDJA BIRORI ARNOLD BEL SH 328 1:52:11 07:01 8.56
876 263 BELLI FABIO BEL V1 176 1:52:13 07:01 8.55
877 471 DEBACKER AURORE BEL SD 89 1:52:23 07:01 8.54
878 470 DE GUCHT GENEVIEVE BEL A1 62 1:52:23 07:01 8.54
879 664 GARCIA HERRANZ MARIA PALOMA BEL A1 63 1:52:29 07:02 8.53
880 665 CHARLIER CHRISTIAN BEL V2 107 1:52:35 07:02 8.53
881 6 FREOUR BENOIT BEL V1 177 1:52:45 07:03 8.51
882 576 THIBAUT MAGALI LAURENCE BEL A1 64 1:52:49 07:03 8.51
883 724 LARDENOEY FRANÇOISE BEL A1 65 1:52:51 07:03 8.51
884 22 BANNEUX DIDIER BEL V1 178 1:52:52 07:03 8.51
885 389 DE PAUW PASCALE BEL A2 35 1:53:04 07:04 8.49
886 47 VANNOORENBERGHE PHILIPPE BEL V2 108 1:53:41 07:06 8.44
887 643 VAN DEN DRIESSCHE ROCH BEL SH 329 1:54:20 07:09 8.40
888 738 BISTON LAURA BEL SD 90 1:54:29 07:09 8.39
889 352 PIEROPAN THÉRÈSE BEL JF 2 1:54:36 07:10 8.38
890 21 DE VINCENZO CÉLINE BEL A1 66 1:54:40 07:10 8.37
891 21 ROBINSKI QUENTIN BEL SH 330 1:55:08 07:12 8.34
892 732 VADALA GIUSEPPE BEL V2 109 1:55:20 07:12 8.32
893 353 PIEROPAN CLAIRE BEL SD 91 1:55:31 07:13 8.31
894 415 TERZINI BARBARA BEL A1 67 1:55:55 07:15 8.28
895 411 DUPONT NATHALIE BEL A1 68 1:55:55 07:15 8.28
896 424 WELLENS NADINE BEL A2 36 1:55:58 07:15 8.28
897 276 LAUS ERALDO BEL V3 44 1:56:00 07:15 8.28
898 351 CHARLES ANGÉLIQUE BEL A1 69 1:57:10 07:19 8.19
899 73 COLLARD SÉBASTIAN BEL V1 179 1:57:17 07:20 8.19
900 531 FRANKARD LUC BEL V2 110 1:57:20 07:20 8.18
901 420 EMMANUEL SOUPLY BEL V1 180 1:57:46 07:22 8.15
902 422 SOUPLY LUCAS BEL SH 331 1:57:48 07:22 8.15
903 292 VROONEN NOELLE BEL A2 37 1:58:01 07:23 8.13
904 383 OUMALIS JOHANA BEL SD 92 1:58:12 07:23 8.12
905 382 OUMALIS ALICIA BEL SD 93 1:58:12 07:23 8.12
906 287 ANGELUCCI EDOUARD BEL V3 45 1:58:32 07:24 8.10
907 639 GAIN ADRIEN BEL SH 332 1:59:46 07:29 8.02
908 297 DEREYMAEKER CÉLINE BEL A1 70 1:59:47 07:29 8.01
909 618 NICOLAS QUENTIN BEL SH 333 2:00:34 07:32 7.96
910 691 DEGAUQUIER BERNARD BEL V2 111 2:01:38 07:36 7.89
911 689 TERRANA ALEXANDRE BEL V2 112 2:01:39 07:36 7.89
912 619 DUFRASNE JUSTINE BEL SD 94 2:02:48 07:40 7.82
913 563 COLAIANNI AUDREY BEL SD 95 2:03:16 07:42 7.79
914 564 DELAIRE MARIE-ODILE BEL SD 96 2:03:19 07:42 7.78
915 345 JAUQUET PIERRE-FRANÇOIS BEL V2 113 2:03:30 07:43 7.77
916 653 PRIOLO MARIE ANNE BEL SD 97 2:04:11 07:46 7.73
917 857 RUBEAUX SYLVAIN BEL SH 334 2:04:14 07:46 7.73
918 885 SKOULIAS EFSTADIOS BEL SH 335 2:04:18 07:46 7.72
919 208 MOTTE VIRGINIE BEL A1 71 2:06:59 07:56 7.56
920 225 BIWOLE NATHALIE BEL A1 72 2:07:31 07:58 7.53
921 326 LAURENT EMMANUELLE BEL A1 73 2:09:05 08:04 7.44
922 812 SCHIFANO VINCENZA BEL A1 74 2:09:16 08:05 7.43
923 442 LEMAIRE ALEXANDRE BEL SH 336 2:09:40 08:06 7.40
924 446 PAWLIK XAVIER BEL SH 337 2:09:40 08:06 7.40
925 884 DEGARDIN VANESSA BEL SD 98 2:10:44 08:10 7.34
926 735 MAREZ MATHIEU BEL SH 338 2:11:32 08:13 7.30
927 861 LOEFFLER MARIE CLAIRE BEL A3 8 2:11:44 08:14 7.29
928 86 PIGNARD ERIC BEL V3 46 2:12:14 08:16 7.26
929 32 VITARELLA CLAUDIO BEL SH 339 2:12:51 08:18 7.23